QPF
0.02 0.01 0.03 0.03 0.01 0.01 0.01 0.00 0.00 0.00 0.01 0.04 0.05 0.04 0.04 0.04 0.03 0.03 0.03 0.03 0.03 0.03 0.04 0.03 0.03 0.03 0.04 0.03 0.02 0.02 0.02 0.03 0.03 0.02 0.02 0.02 0.03 0.03 0.03 0.02 0.01 0.01 0.01
0.00 0.01 0.01 0.02 0.01 0.01 0.01 0.00 0.01 0.00 0.01 0.03 0.06 0.08 0.09 0.09 0.06 0.05 0.03 0.03 0.03 0.03 0.03 0.02 0.02 0.02 0.03 0.02 0.02 0.02 0.03 0.03 0.03 0.02 0.02 0.02 0.03 0.04 0.04 0.03 0.02 0.01 0.01
0.00 0.00 0.00 0.02 0.01 0.01 0.01 0.00 0.01 0.00 0.01 0.04 0.08 0.13 0.15 0.10 0.07 0.05 0.03 0.03 0.03 0.03 0.02 0.03 0.02 0.01 0.02 0.02 0.03 0.04 0.05 0.05 0.05 0.04 0.02 0.01 0.02 0.03 0.03 0.02 0.02 0.01 0.01
0.00 0.00 0.00 0.01 0.01 0.00 0.00 0.00 0.01 0.01 0.01 0.05 0.08 0.09 0.07 0.04 0.04 0.03 0.02 0.03 0.04 0.03 0.01 0.02 0.03 0.02 0.02 0.01 0.02 0.04 0.05 0.06 0.07 0.06 0.02 0.01 0.01 0.02 0.02 0.02 0.01 0.01 0.01
0.00 0.00 0.00 0.01 0.00 0.00 0.00 0.00 0.01 0.01 0.01 0.02 0.02 0.02 0.02 0.02 0.02 0.02 0.02 0.04 0.04 0.02 0.02 0.02 0.03 0.02 0.02 0.02 0.03 0.04 0.06 0.06 0.08 0.08 0.03 0.01 0.01 0.02 0.01 0.02 0.02 0.01 0.01
0.00 0.00 0.00 0.00 0.00 0.00 0.00 0.00 0.00 0.00 0.00 0.01 0.01 0.01 0.01 0.01 0.01 0.01 0.01 0.02 0.02 0.02 0.02 0.03 0.03 0.03 0.03 0.02 0.02 0.04 0.05 0.07 0.05 0.03 0.02 0.01 0.01 0.02 0.01 0.02 0.02 0.02 0.02
0.00 0.00 0.00 0.00 0.00 0.00 0.00 0.00 0.00 0.00 0.00 0.01 0.01 0.01 0.01 0.01 0.01 0.02 0.02 0.01 0.02 0.01 0.02 0.03 0.02 0.02 0.01 0.02 0.03 0.05 0.06 0.10 0.05 0.02 0.02 0.01 0.01 0.02 0.01 0.01 0.01 0.01 0.01
0.00 0.00 0.00 0.00 0.00 0.00 0.00 0.00 0.00 0.00 0.01 0.01 0.01 0.01 0.01 0.01 0.01 0.01 0.01 0.01 0.01 0.01 0.01 0.01 0.01 0.01 0.02 0.02 0.04 0.06 0.09 0.09 0.04 0.03 0.01 0.00 0.01 0.01 0.01 0.01 0.01 0.00 0.00
0.00 0.00 0.00 0.00 0.00 0.01 0.00 0.00 0.00 0.01 0.01 0.01 0.01 0.01 0.01 0.01 0.01 0.01 0.01 0.01 0.01 0.01 0.01 0.01 0.01 0.01 0.02 0.03 0.04 0.05 0.08 0.07 0.04 0.02 0.00 0.00 0.01 0.01 0.00 0.00 0.00 0.01 0.01
0.00 0.00 0.00 0.00 0.00 0.00 0.00 0.01 0.01 0.00 0.01 0.01 0.01 0.01 0.01 0.01 0.01 0.01 0.01 0.01 0.00 0.01 0.01 0.01 0.02 0.02 0.02 0.02 0.02 0.04 0.05 0.04 0.03 0.01 0.00 0.00 0.00 0.00 0.00 0.00 0.01 0.01 0.01
0.00 0.00 0.00 0.00 0.00 0.00 0.00 0.00 0.01 0.01 0.01 0.01 0.01 0.01 0.01 0.01 0.01 0.01 0.01 0.01 0.01 0.01 0.01 0.02 0.02 0.01 0.01 0.01 0.02 0.03 0.03 0.06 0.03 0.02 0.01 0.00 0.00 0.00 0.00 0.00 0.00 0.00 0.01
0.00 0.00 0.00 0.00 0.00 0.00 0.00 0.00 0.00 0.00 0.00 0.00 0.00 0.00 0.01 0.01 0.01 0.01 0.02 0.03 0.02 0.01 0.01 0.02 0.02 0.01 0.01 0.01 0.02 0.03 0.05 0.05 0.05 0.02 0.01 0.01 0.00 0.00 0.00 0.00 0.00 0.00 0.01
0.00 0.00 0.00 0.00 0.00 0.00 0.00 0.00 0.00 0.00 0.01 0.01 0.01 0.00 0.01 0.01 0.01 0.01 0.01 0.03 0.02 0.02 0.01 0.01 0.02 0.02 0.02 0.03 0.04 0.05 0.05 0.04 0.03 0.02 0.01 0.01 0.00 0.00 0.00 0.00 0.00 0.00 0.00
0.00 0.00 0.00 0.00 0.00 0.01 0.00 0.00 0.00 0.00 0.00 0.01 0.01 0.01 0.01 0.01 0.01 0.01 0.01 0.01 0.01 0.01 0.00 0.01 0.01 0.03 0.04 0.04 0.05 0.05 0.05 0.04 0.03 0.02 0.01 0.01 0.01 0.00 0.00 0.00 0.00 0.00 0.00
0.00 0.00 0.00 0.01 0.00 0.01 0.01 0.01 0.01 0.01 0.01 0.01 0.01 0.01 0.01 0.01 0.01 0.01 0.01 0.01 0.01 0.01 0.01 0.02 0.02 0.04 0.04 0.04 0.04 0.05 0.06 0.04 0.03 0.02 0.01 0.01 0.01 0.00 0.00 0.00 0.01 0.00 0.00
0.00 0.00 0.00 0.00 0.00 0.01 0.02 0.01 0.02 0.02 0.01 0.02 0.01 0.01 0.01 0.01 0.01 0.02 0.01 0.02 0.03 0.02 0.02 0.02 0.02 0.03 0.04 0.05 0.05 0.04 0.04 0.04 0.04 0.03 0.01 0.00 0.01 0.01 0.00 0.00 0.01 0.01 0.01
0.00 0.00 0.00 0.01 0.01 0.01 0.01 0.01 0.02 0.06 0.03 0.02 0.03 0.03 0.03 0.02 0.02 0.02 0.02 0.03 0.04 0.06 0.06 0.02 0.02 0.03 0.03 0.04 0.05 0.03 0.03 0.04 0.06 0.02 0.01 0.00 0.00 0.01 0.01 0.01 0.01 0.01 0.01
0.01 0.00 0.01 0.01 0.01 0.01 0.01 0.01 0.02 0.05 0.08 0.05 0.04 0.06 0.04 0.04 0.05 0.03 0.03 0.04 0.03 0.03 0.03 0.02 0.02 0.02 0.04 0.06 0.06 0.04 0.03 0.02 0.03 0.02 0.02 0.01 0.00 0.00 0.00 0.01 0.01 0.01 0.02
0.01 0.01 0.02 0.01 0.01 0.01 0.01 0.02 0.03 0.06 0.09 0.06 0.04 0.04 0.04 0.04 0.03 0.04 0.04 0.03 0.03 0.03 0.03 0.02 0.02 0.01 0.02 0.04 0.05 0.04 0.03 0.03 0.03 0.04 0.04 0.02 0.01 0.01 0.00 0.00 0.01 0.01 0.02
0.03 0.04 0.03 0.01 0.01 0.02 0.02 0.03 0.04 0.05 0.05 0.06 0.06 0.04 0.02 0.03 0.03 0.04 0.04 0.04 0.03 0.03 0.03 0.02 0.03 0.03 0.02 0.02 0.04 0.05 0.05 0.04 0.03 0.05 0.04 0.03 0.03 0.01 0.01 0.01 0.00 0.01 0.01
0.06 0.05 0.04 0.02 0.03 0.03 0.03 0.04 0.05 0.04 0.03 0.03 0.04 0.03 0.01 0.01 0.02 0.03 0.03 0.03 0.03 0.03 0.02 0.02 0.03 0.03 0.05 0.04 0.05 0.06 0.07 0.06 0.05 0.05 0.04 0.03 0.04 0.03 0.03 0.03 0.01 0.01 0.01
0.05 0.05 0.04 0.03 0.04 0.05 0.05 0.06 0.07 0.04 0.03 0.03 0.03 0.03 0.02 0.03 0.04 0.03 0.03 0.03 0.02 0.02 0.02 0.03 0.03 0.03 0.02 0.03 0.04 0.06 0.09 0.11 0.08 0.06 0.05 0.04 0.05 0.04 0.03 0.04 0.02 0.01 0.02
0.04 0.03 0.03 0.03 0.03 0.04 0.05 0.07 0.07 0.06 0.05 0.04 0.03 0.04 0.04 0.04 0.04 0.03 0.03 0.04 0.03 0.03 0.02 0.02 0.03 0.03 0.03 0.03 0.03 0.03 0.02 0.03 0.03 0.03 0.03 0.05 0.06 0.05 0.04 0.04 0.04 0.02 0.02
0.05 0.04 0.03 0.03 0.03 0.04 0.05 0.08 0.09 0.10 0.08 0.05 0.04 0.05 0.06 0.05 0.04 0.05 0.04 0.04 0.05 0.04 0.03 0.03 0.02 0.02 0.03 0.02 0.03 0.02 0.01 0.01 0.01 0.02 0.04 0.06 0.06 0.04 0.03 0.04 0.04 0.04 0.05
0.09 0.07 0.05 0.04 0.04 0.05 0.07 0.09 0.11 0.11 0.11 0.10 0.08 0.08 0.07 0.06 0.06 0.07 0.06 0.05 0.06 0.06 0.04 0.04 0.04 0.02 0.01 0.01 0.02 0.03 0.03 0.02 0.02 0.02 0.02 0.03 0.04 0.03 0.03 0.04 0.04 0.04 0.05
0.08 0.11 0.08 0.05 0.05 0.06 0.08 0.10 0.12 0.12 0.12 0.11 0.13 0.12 0.08 0.07 0.07 0.08 0.08 0.08 0.09 0.09 0.06 0.04 0.05 0.03 0.02 0.01 0.01 0.02 0.02 0.02 0.03 0.02 0.01 0.01 0.02 0.02 0.04 0.05 0.04 0.04 0.05
MSLP
1013.30 1012.93 1012.78 1012.87 1013.18 1013.59 1014.00 1014.31 1014.46 1014.44 1014.30 1014.11 1013.96 1013.92 1013.99 1014.18 1014.43 1014.67 1014.87 1014.98 1015.00 1014.97 1014.93 1014.92 1014.98 1015.11 1015.30 1015.52 1015.74 1015.92 1016.06 1016.15 1016.21 1016.27 1016.35 1016.45 1016.59 1016.75 1016.90 1017.04 1017.14 1017.22 1017.28
1013.09 1012.86 1012.83 1013.02 1013.37 1013.80 1014.21 1014.50 1014.63 1014.60 1014.47 1014.32 1014.22 1014.22 1014.35 1014.58 1014.86 1015.12 1015.31 1015.41 1015.43 1015.38 1015.33 1015.32 1015.37 1015.50 1015.69 1015.90 1016.11 1016.28 1016.40 1016.48 1016.55 1016.61 1016.70 1016.83 1016.98 1017.16 1017.33 1017.48 1017.59 1017.68 1017.74
1012.85 1012.75 1012.82 1013.08 1013.47 1013.92 1014.32 1014.60 1014.73 1014.72 1014.62 1014.52 1014.47 1014.54 1014.71 1014.97 1015.27 1015.53 1015.71 1015.80 1015.80 1015.75 1015.69 1015.67 1015.73 1015.85 1016.03 1016.23 1016.43 1016.59 1016.71 1016.80 1016.87 1016.95 1017.07 1017.21 1017.39 1017.58 1017.77 1017.93 1018.05 1018.14 1018.21
1012.64 1012.64 1012.80 1013.11 1013.53 1013.98 1014.37 1014.65 1014.79 1014.81 1014.76 1014.71 1014.73 1014.84 1015.06 1015.33 1015.62 1015.87 1016.04 1016.11 1016.10 1016.05 1016.00 1015.99 1016.05 1016.17 1016.34 1016.54 1016.72 1016.88 1017.00 1017.10 1017.19 1017.30 1017.44 1017.62 1017.81 1018.01 1018.20 1018.36 1018.49 1018.58 1018.66
1012.54 1012.62 1012.83 1013.17 1013.59 1014.03 1014.41 1014.69 1014.84 1014.90 1014.90 1014.91 1014.98 1015.13 1015.36 1015.64 1015.91 1016.14 1016.28 1016.34 1016.33 1016.29 1016.26 1016.27 1016.35 1016.48 1016.65 1016.83 1017.01 1017.16 1017.29 1017.41 1017.53 1017.67 1017.83 1018.02 1018.22 1018.42 1018.60 1018.75 1018.87 1018.97 1019.06
1012.59 1012.72 1012.96 1013.31 1013.72 1014.13 1014.49 1014.75 1014.91 1015.00 1015.04 1015.10 1015.21 1015.39 1015.63 1015.89 1016.14 1016.33 1016.45 1016.50 1016.51 1016.49 1016.50 1016.54 1016.64 1016.78 1016.95 1017.13 1017.30 1017.45 1017.58 1017.72 1017.86 1018.03 1018.21 1018.42 1018.62 1018.80 1018.96 1019.09 1019.19 1019.29 1019.38
1012.79 1012.95 1013.21 1013.55 1013.93 1014.30 1014.62 1014.86 1015.02 1015.12 1015.19 1015.29 1015.43 1015.62 1015.85 1016.09 1016.31 1016.47 1016.58 1016.63 1016.65 1016.68 1016.72 1016.81 1016.94 1017.09 1017.26 1017.43 1017.59 1017.73 1017.87 1018.01 1018.18 1018.37 1018.57 1018.78 1018.97 1019.13 1019.27 1019.37 1019.45 1019.53 1019.62
1013.08 1013.27 1013.54 1013.86 1014.20 1014.53 1014.80 1015.00 1015.14 1015.25 1015.35 1015.47 1015.64 1015.84 1016.06 1016.27 1016.45 1016.59 1016.68 1016.74 1016.79 1016.85 1016.94 1017.07 1017.22 1017.39 1017.56 1017.72 1017.85 1017.99 1018.12 1018.28 1018.46 1018.67 1018.88 1019.09 1019.28 1019.42 1019.53 1019.60 1019.66 1019.72 1019.81
1013.38 1013.61 1013.88 1014.19 1014.49 1014.76 1014.98 1015.15 1015.27 1015.38 1015.50 1015.64 1015.83 1016.03 1016.25 1016.44 1016.60 1016.72 1016.80 1016.86 1016.93 1017.03 1017.15 1017.31 1017.48 1017.66 1017.82 1017.96 1018.08 1018.20 1018.33 1018.50 1018.69 1018.92 1019.15 1019.36 1019.55 1019.68 1019.76 1019.81 1019.85 1019.90 1019.99
1013.60 1013.87 1014.17 1014.46 1014.74 1014.96 1015.13 1015.26 1015.37 1015.48 1015.61 1015.79 1015.99 1016.22 1016.44 1016.63 1016.77 1016.87 1016.95 1017.01 1017.09 1017.20 1017.35 1017.52 1017.70 1017.87 1018.02 1018.14 1018.25 1018.36 1018.49 1018.66 1018.87 1019.11 1019.36 1019.59 1019.78 1019.91 1019.99 1020.03 1020.06 1020.10 1020.18
1013.68 1014.01 1014.33 1014.63 1014.88 1015.07 1015.20 1015.30 1015.39 1015.51 1015.67 1015.88 1016.13 1016.38 1016.62 1016.82 1016.96 1017.06 1017.12 1017.19 1017.26 1017.38 1017.52 1017.69 1017.86 1018.02 1018.15 1018.26 1018.36 1018.46 1018.60 1018.78 1019.00 1019.26 1019.53 1019.78 1019.99 1020.13 1020.22 1020.27 1020.30 1020.34 1020.42
1013.61 1013.99 1014.35 1014.65 1014.89 1015.05 1015.16 1015.24 1015.33 1015.47 1015.66 1015.92 1016.21 1016.50 1016.77 1016.99 1017.15 1017.25 1017.31 1017.37 1017.44 1017.54 1017.67 1017.82 1017.97 1018.12 1018.24 1018.34 1018.43 1018.54 1018.68 1018.86 1019.10 1019.38 1019.66 1019.93 1020.16 1020.33 1020.45 1020.52 1020.57 1020.62 1020.69
1013.40 1013.83 1014.22 1014.54 1014.77 1014.92 1015.01 1015.08 1015.18 1015.34 1015.57 1015.87 1016.21 1016.56 1016.87 1017.12 1017.30 1017.42 1017.49 1017.54 1017.59 1017.68 1017.79 1017.92 1018.05 1018.18 1018.29 1018.39 1018.49 1018.61 1018.75 1018.95 1019.19 1019.47 1019.77 1020.05 1020.30 1020.50 1020.64 1020.75 1020.82 1020.89 1020.97
1013.11 1013.58 1013.99 1014.32 1014.54 1014.68 1014.76 1014.83 1014.94 1015.12 1015.39 1015.73 1016.12 1016.51 1016.87 1017.17 1017.38 1017.52 1017.60 1017.66 1017.71 1017.78 1017.88 1017.99 1018.12 1018.24 1018.35 1018.46 1018.57 1018.70 1018.86 1019.06 1019.30 1019.57 1019.85 1020.13 1020.38 1020.60 1020.77 1020.91 1021.02 1021.12 1021.22
1012.81 1013.29 1013.71 1014.03 1014.25 1014.38 1014.46 1014.53 1014.66 1014.85 1015.14 1015.51 1015.93 1016.36 1016.76 1017.09 1017.34 1017.52 1017.63 1017.71 1017.77 1017.85 1017.94 1018.05 1018.18 1018.31 1018.44 1018.56 1018.70 1018.84 1019.00 1019.20 1019.42 1019.66 1019.91 1020.16 1020.40 1020.62 1020.81 1020.98 1021.13 1021.27 1021.39
1012.54 1013.02 1013.42 1013.73 1013.94 1014.06 1014.15 1014.23 1014.36 1014.57 1014.87 1015.24 1015.67 1016.10 1016.52 1016.88 1017.17 1017.38 1017.54 1017.65 1017.75 1017.85 1017.97 1018.10 1018.24 1018.40 1018.55 1018.71 1018.87 1019.03 1019.20 1019.38 1019.56 1019.75 1019.95 1020.15 1020.35 1020.55 1020.74 1020.93 1021.12 1021.29 1021.44
1012.33 1012.77 1013.15 1013.44 1013.65 1013.78 1013.87 1013.97 1014.11 1014.32 1014.60 1014.95 1015.35 1015.77 1016.17 1016.54 1016.85 1017.11 1017.32 1017.49 1017.64 1017.79 1017.95 1018.12 1018.30 1018.49 1018.69 1018.89 1019.08 1019.26 1019.42 1019.58 1019.72 1019.85 1019.97 1020.10 1020.24 1020.40 1020.58 1020.78 1020.98 1021.19 1021.39
1012.16 1012.56 1012.91 1013.18 1013.39 1013.54 1013.66 1013.78 1013.93 1014.13 1014.38 1014.69 1015.03 1015.40 1015.76 1016.11 1016.43 1016.73 1016.99 1017.22 1017.45 1017.66 1017.88 1018.10 1018.33 1018.57 1018.82 1019.05 1019.28 1019.48 1019.65 1019.78 1019.88 1019.95 1019.99 1020.04 1020.11 1020.21 1020.35 1020.54 1020.76 1021.00 1021.23
1012.02 1012.38 1012.69 1012.95 1013.17 1013.35 1013.52 1013.68 1013.84 1014.03 1014.24 1014.48 1014.74 1015.03 1015.33 1015.63 1015.95 1016.26 1016.57 1016.87 1017.17 1017.46 1017.74 1018.03 1018.32 1018.61 1018.90 1019.17 1019.44 1019.66 1019.84 1019.96 1020.03 1020.04 1020.01 1019.98 1019.97 1020.01 1020.10 1020.26 1020.48 1020.73 1020.99
1011.89 1012.20 1012.48 1012.74 1012.99 1013.22 1013.44 1013.65 1013.84 1014.02 1014.19 1014.35 1014.52 1014.70 1014.91 1015.16 1015.44 1015.76 1016.10 1016.46 1016.83 1017.19 1017.54 1017.89 1018.23 1018.56 1018.89 1019.21 1019.51 1019.76 1019.96 1020.09 1020.14 1020.11 1020.04 1019.94 1019.86 1019.83 1019.86 1019.98 1020.18 1020.42 1020.69
1011.77 1012.03 1012.29 1012.55 1012.83 1013.12 1013.41 1013.67 1013.90 1014.07 1014.20 1014.28 1014.35 1014.42 1014.53 1014.70 1014.94 1015.25 1015.62 1016.02 1016.45 1016.87 1017.27 1017.67 1018.04 1018.41 1018.78 1019.13 1019.46 1019.75 1019.98 1020.13 1020.19 1020.16 1020.06 1019.92 1019.78 1019.69 1019.66 1019.72 1019.87 1020.09 1020.35
1011.68 1011.89 1012.12 1012.39 1012.70 1013.04 1013.39 1013.71 1013.96 1014.14 1014.22 1014.24 1014.21 1014.18 1014.19 1014.28 1014.47 1014.76 1015.13 1015.57 1016.03 1016.49 1016.94 1017.37 1017.77 1018.16 1018.54 1018.92 1019.28 1019.61 1019.88 1020.08 1020.17 1020.16 1020.06 1019.90 1019.73 1019.58 1019.48 1019.47 1019.56 1019.72 1019.94
1011.64 1011.80 1012.01 1012.27 1012.60 1012.97 1013.36 1013.71 1013.98 1014.15 1014.20 1014.15 1014.04 1013.92 1013.85 1013.88 1014.01 1014.28 1014.65 1015.10 1015.59 1016.08 1016.55 1016.99 1017.40 1017.79 1018.19 1018.58 1018.97 1019.34 1019.66 1019.90 1020.05 1020.08 1020.01 1019.86 1019.67 1019.47 1019.31 1019.23 1019.23 1019.31 1019.47
1011.68 1011.81 1011.97 1012.21 1012.52 1012.89 1013.28 1013.63 1013.90 1014.05 1014.06 1013.96 1013.79 1013.60 1013.47 1013.43 1013.54 1013.78 1014.15 1014.60 1015.10 1015.61 1016.09 1016.53 1016.94 1017.33 1017.73 1018.13 1018.54 1018.94 1019.31 1019.61 1019.82 1019.91 1019.88 1019.75 1019.56 1019.33 1019.12 1018.95 1018.86 1018.86 1018.93
1011.84 1011.92 1012.03 1012.22 1012.48 1012.80 1013.15 1013.46 1013.69 1013.79 1013.76 1013.61 1013.39 1013.16 1012.99 1012.92 1013.00 1013.23 1013.60 1014.06 1014.57 1015.08 1015.56 1016.01 1016.41 1016.80 1017.18 1017.58 1018.01 1018.43 1018.84 1019.20 1019.47 1019.62 1019.65 1019.56 1019.38 1019.14 1018.88 1018.64 1018.46 1018.36 1018.34
1012.10 1012.14 1012.19 1012.30 1012.47 1012.71 1012.96 1013.19 1013.35 1013.39 1013.30 1013.11 1012.86 1012.60 1012.40 1012.32 1012.40 1012.63 1013.00 1013.46 1013.97 1014.49 1014.98 1015.42 1015.82 1016.19 1016.57 1016.97 1017.40 1017.84 1018.28 1018.68 1019.01 1019.22 1019.30 1019.26 1019.11 1018.87 1018.58 1018.30 1018.04 1017.85 1017.74
Thickness
5781 5784 5783 5782 5781 5780 5780 5780 5780 5780 5779 5778 5776 5775 5774 5773 5771 5770 5768 5767 5766 5765 5763 5762 5761 5759 5758 5757 5755 5753 5752 5751 5750 5748 5747 5745 5743 5742 5741 5739 5738 5736 5735
5787 5785 5783 5782 5781 5780 5779 5779 5778 5778 5777 5776 5775 5774 5773 5771 5770 5768 5767 5765 5764 5763 5761 5760 5759 5757 5756 5754 5753 5751 5750 5749 5748 5746 5745 5743 5742 5740 5739 5738 5736 5734 5733
5789 5786 5783 5782 5780 5779 5778 5778 5777 5776 5776 5775 5773 5772 5771 5770 5768 5767 5765 5764 5763 5762 5760 5759 5757 5756 5754 5752 5751 5749 5748 5747 5746 5744 5743 5741 5740 5738 5737 5736 5735 5733 5732
5789 5786 5783 5781 5779 5778 5777 5777 5776 5775 5774 5773 5772 5771 5770 5769 5767 5766 5764 5763 5762 5760 5758 5757 5755 5754 5752 5750 5749 5747 5746 5745 5744 5743 5741 5740 5738 5737 5736 5734 5733 5732 5730
5788 5785 5783 5781 5779 5777 5776 5776 5775 5774 5773 5773 5771 5770 5769 5768 5766 5765 5763 5762 5760 5759 5757 5755 5753 5752 5750 5749 5747 5746 5745 5744 5742 5741 5739 5738 5737 5736 5734 5733 5732 5730 5729
5786 5784 5782 5780 5778 5777 5776 5775 5774 5773 5772 5771 5770 5769 5768 5767 5765 5763 5762 5760 5759 5757 5755 5754 5752 5750 5749 5747 5746 5745 5744 5742 5741 5739 5738 5736 5735 5734 5733 5732 5730 5729 5727
5785 5784 5782 5779 5777 5776 5775 5774 5773 5772 5771 5770 5769 5768 5767 5765 5763 5762 5761 5759 5757 5756 5754 5752 5751 5749 5748 5747 5745 5744 5743 5742 5740 5738 5736 5735 5734 5733 5732 5730 5728 5727 5726
5786 5783 5781 5778 5777 5775 5774 5773 5772 5771 5770 5768 5767 5766 5765 5763 5762 5760 5759 5757 5756 5754 5753 5751 5750 5749 5747 5746 5745 5744 5743 5741 5738 5737 5735 5734 5733 5731 5730 5728 5727 5726 5724
5785 5783 5780 5778 5776 5775 5773 5772 5771 5770 5768 5767 5766 5765 5763 5762 5760 5758 5757 5756 5754 5753 5752 5750 5749 5748 5747 5745 5744 5743 5742 5740 5738 5736 5735 5733 5731 5730 5728 5727 5725 5724 5723
5783 5781 5779 5777 5775 5774 5772 5771 5770 5769 5767 5766 5765 5763 5762 5760 5759 5757 5756 5754 5753 5752 5751 5750 5749 5748 5746 5744 5743 5742 5741 5739 5737 5735 5734 5732 5730 5729 5727 5725 5724 5722 5721
5780 5779 5778 5776 5774 5773 5771 5770 5769 5767 5766 5765 5763 5762 5760 5759 5757 5755 5754 5753 5751 5750 5750 5749 5748 5747 5746 5744 5743 5741 5739 5738 5736 5734 5733 5731 5730 5728 5726 5724 5723 5721 5720
5778 5777 5777 5775 5774 5772 5771 5769 5768 5766 5765 5763 5762 5760 5759 5757 5756 5754 5753 5752 5750 5749 5748 5748 5747 5747 5745 5744 5742 5740 5738 5737 5735 5733 5732 5730 5729 5727 5725 5723 5722 5721 5719
5782 5780 5778 5776 5774 5772 5771 5768 5767 5765 5764 5762 5761 5759 5757 5756 5754 5753 5752 5750 5749 5748 5747 5747 5746 5746 5745 5744 5742 5740 5738 5736 5734 5733 5731 5729 5728 5726 5725 5723 5721 5720 5719
5784 5782 5780 5777 5775 5773 5771 5768 5766 5764 5763 5761 5760 5758 5756 5755 5753 5752 5751 5750 5748 5747 5746 5746 5745 5745 5745 5744 5743 5740 5738 5736 5734 5733 5731 5729 5727 5726 5724 5723 5721 5719 5718
5787 5784 5782 5779 5776 5774 5771 5768 5766 5764 5763 5762 5760 5758 5757 5755 5753 5751 5750 5749 5748 5747 5746 5745 5744 5744 5744 5744 5742 5740 5738 5736 5734 5733 5731 5729 5727 5726 5724 5723 5721 5719 5718
5791 5788 5785 5782 5779 5776 5773 5770 5768 5766 5764 5762 5761 5759 5757 5755 5754 5752 5750 5749 5748 5747 5746 5745 5744 5744 5743 5743 5742 5740 5738 5736 5735 5733 5731 5729 5727 5726 5725 5723 5721 5720 5719
5796 5792 5788 5784 5781 5777 5774 5771 5769 5767 5764 5763 5761 5760 5758 5756 5754 5752 5750 5749 5749 5748 5747 5745 5744 5744 5743 5743 5741 5740 5738 5737 5735 5733 5731 5730 5728 5726 5725 5724 5722 5721 5719
5798 5793 5789 5787 5781 5777 5775 5772 5769 5767 5764 5762 5761 5760 5757 5756 5754 5752 5750 5749 5749 5748 5747 5745 5744 5742 5741 5740 5740 5739 5738 5737 5735 5734 5732 5730 5729 5727 5726 5725 5723 5722 5721
5799 5794 5789 5786 5782 5778 5775 5772 5769 5766 5764 5762 5761 5759 5758 5756 5754 5752 5750 5749 5749 5748 5746 5745 5743 5742 5739 5738 5739 5738 5738 5737 5736 5734 5733 5731 5730 5729 5728 5726 5725 5723 5722
5800 5795 5790 5786 5783 5779 5775 5771 5767 5765 5763 5761 5760 5759 5758 5756 5754 5752 5750 5749 5748 5746 5745 5744 5742 5741 5739 5738 5738 5737 5737 5737 5737 5736 5734 5733 5731 5730 5729 5728 5726 5725 5724
5798 5793 5790 5786 5782 5779 5774 5768 5764 5761 5761 5759 5759 5759 5758 5756 5754 5752 5750 5749 5747 5745 5744 5743 5741 5739 5738 5738 5734 5731 5733 5736 5736 5736 5735 5734 5733 5732 5730 5729 5728 5727 5726
5798 5794 5790 5787 5783 5780 5776 5771 5767 5763 5760 5759 5759 5758 5757 5756 5754 5752 5750 5748 5746 5744 5743 5742 5740 5737 5736 5737 5731 5725 5722 5726 5732 5737 5736 5735 5734 5733 5732 5731 5730 5729 5727
5798 5795 5792 5788 5784 5781 5776 5771 5766 5761 5758 5756 5755 5755 5755 5754 5753 5752 5750 5748 5746 5744 5742 5741 5740 5737 5733 5734 5735 5729 5720 5717 5724 5731 5735 5736 5735 5734 5734 5734 5732 5731 5729
5800 5797 5792 5788 5784 5780 5776 5770 5764 5759 5755 5756 5756 5755 5754 5754 5753 5751 5749 5748 5746 5744 5742 5741 5741 5739 5735 5731 5732 5733 5732 5729 5722 5722 5729 5734 5735 5735 5735 5735 5734 5733 5731
5801 5796 5792 5787 5782 5779 5775 5771 5766 5761 5759 5757 5756 5754 5753 5753 5752 5751 5749 5747 5746 5744 5743 5742 5740 5739 5737 5734 5732 5731 5730 5729 5728 5722 5720 5726 5731 5735 5736 5736 5736 5734 5733
5799 5794 5790 5785 5781 5779 5775 5771 5767 5762 5759 5756 5754 5752 5751 5751 5750 5750 5749 5747 5745 5744 5742 5741 5740 5739 5738 5736 5734 5732 5730 5727 5725 5724 5721 5722 5724 5731 5735 5736 5736 5735 5734